sat.trackr.live / text

‹ back to catalog

IRIDIUM 180

NORAD 43922 · 2019-002A

PAYLOAD ACTIVE UNKNOWN

§ Identity

Operator
Country
US
Launch date
2019-01-11
Launch site
AFWTR
Launch vehicle
Mass (kg)
RCS (m²)

Purposes: comms

External: N2YO · Heavens-Above · Gunter

§ Orbital elements

Epoch: 2026-05-25T02:41:46.932864Z

Period
100.40 min
Inclination
86.3986°
Eccentricity
0.0002234
Mean motion
14.34217715 rev/d
Perigee alt
776.1 km
Apogee alt
779.3 km
Semi-major
7,155.8 km
B*
5.1966e-7
RAAN
3.2448°
Arg perigee
89.1758°
Mean anomaly
270.9694°
Rev number
38,568

§ Raw data

IRIDIUM 1801 43922U 19002A   26145.11234876  .00000021  00000+0  51966-6 0  99972 43922  86.3986   3.2448 0002234  89.1758 270.9694 14.34217715385684

JSON: /api/v1/satellites/43922 · /tle

For live sub-satellite position, see the globe view (requires WebGL).

§ Visibility from observer

Set your observer location to see the next 7 days of passes ≥ 10°. The values pass through the URL so the page stays shareable.

No JS? Fill the form by hand. The geolocation button needs JavaScript.